Chatham, MA

1:41 AM EDT on May 30, 2017 (GMT -0400)
Chatham Municipal

Weather History for KCQX - July, 2013

Change the Weather History Date:

Wednesday, July 17, 2013

  Actual Average Record
Temperature  
Mean Temperature 76 °F -  
Max Temperature 86 °F 75 °F 90 °F (2012)
Min Temperature 70 °F 61 °F 54 °F (1992)
Cooling Degree Days 11    
Growing Degree Days 26 (Base 50)    
Moisture  
Dew Point 67 °F    
Average Humidity 76    
Maximum Humidity 90    
Minimum Humidity 58    
Precipitation  
Precipitation 0.00 in - - ()
Sea Level Pressure  
Sea Level Pressure 30.15 in    
Wind  
Wind Speed 4 mph (South)    
Max Wind Speed 9 mph    
Max Gust Speed -    
Visibility 10 miles    
Events      
Averages and records for this station are not official NWS values.
T = Trace of Precipitation, MM = Missing Value Source: NWS Daily Summary

Daily Weather History Graph

Daily Weather History Graph

Search for Another Location

Airport or City:

Trip Planner

Search our weather history database for the weather conditions in past years. The results will help you decide how hot, cold, wet, or windy it might be!

Date:

Astronomy

Jul. 17, 2013 Rise Set
Actual Time 5:20 AM EDT 8:11 PM EDT
Civil Twilight 4:47 AM EDT 8:44 PM EDT
Nautical Twilight 4:06 AM EDT 9:25 PM EDT
Astronomical Twilight 3:18 AM EDT 10:13 PM EDT
Moon 2:55 PM EDT (7/17) 12:26 AM EDT (7/17)
Length of Visible Light 15h 56m
Length of Day
14h 50m
Waxing Gibbous, 67% of the Moon is Illuminated
Jul 17
Waxing Gibbous
Jul 22
Full
Jul 29
Last Quarter
Aug 6
New
Aug 14
First Quarter

Hourly Weather History & Observations

Time (EDT) Temp. Heat Index Dew Point Humidity Pressure Visibility Wind Dir Wind Speed Gust Speed Precip Events Conditions
12:52 AM 71.1 °F - 64.9 °F 81% 30.16 in 10.0 mi NW 4.6 mph - N/A   Clear
1:52 AM 70.0 °F - 66.9 °F 90% 30.16 in 10.0 mi NNW 3.5 mph - N/A   Clear
2:52 AM 71.1 °F - 66.0 °F 84% 30.16 in 10.0 mi Calm Calm - N/A   Clear
3:52 AM 70.0 °F - 66.0 °F 87% 30.16 in 10.0 mi Calm Calm - N/A   Clear
4:52 AM 72.0 °F - 66.9 °F 84% 30.17 in 10.0 mi Calm Calm - N/A   Clear
5:52 AM 72.0 °F - 68.0 °F 87% 30.18 in 8.0 mi NNE 3.5 mph - N/A   Clear
6:52 AM 73.9 °F - 64.9 °F 73% 30.20 in 10.0 mi NE 5.8 mph - N/A   Clear
7:52 AM 75.0 °F - 66.0 °F 73% 30.20 in 10.0 mi ENE 5.8 mph - N/A   Clear
8:52 AM 77.0 °F - 66.9 °F 71% 30.20 in 10.0 mi East 4.6 mph - N/A   Clear
9:52 AM 80.1 °F 82.1 °F 66.0 °F 62% 30.20 in 10.0 mi ESE 4.6 mph - N/A   Clear
10:52 AM 79.0 °F - 68.0 °F 69% 30.19 in 10.0 mi SE 5.8 mph - N/A   Clear
11:52 AM 81.0 °F 83.3 °F 66.9 °F 62% 30.18 in 10.0 mi SE 4.6 mph - N/A   Clear
12:52 PM 82.9 °F 85.4 °F 66.9 °F 58% 30.17 in 10.0 mi Variable 3.5 mph - N/A   Clear
1:52 PM 82.9 °F 85.4 °F 66.9 °F 58% 30.17 in 10.0 mi SE 4.6 mph - N/A   Clear
2:52 PM 80.1 °F 82.1 °F 66.0 °F 62% 30.16 in 10.0 mi South 5.8 mph - N/A   Clear
3:52 PM 78.1 °F - 68.0 °F 71% 30.14 in 10.0 mi South 9.2 mph - N/A   Clear
4:52 PM 77.0 °F - 66.0 °F 69% 30.11 in 10.0 mi South 6.9 mph - N/A   Clear
5:52 PM 75.9 °F - 66.0 °F 71% 30.10 in 10.0 mi South 5.8 mph - N/A   Clear
6:52 PM 75.0 °F - 70.0 °F 84% 30.09 in 10.0 mi SSW 5.8 mph - N/A   Clear
7:52 PM 73.9 °F - 66.9 °F 79% 30.06 in 10.0 mi SSW 8.1 mph - N/A   Clear
8:52 PM 73.9 °F - 68.0 °F 82% 30.09 in 10.0 mi SW 8.1 mph - N/A   Clear
9:52 PM 73.9 °F - 70.0 °F 87% 30.09 in 10.0 mi SW 5.8 mph - N/A   Clear
10:52 PM 75.0 °F - 71.1 °F 87% 30.07 in 10.0 mi SW 5.8 mph - N/A   Clear
11:52 PM 75.0 °F - 71.1 °F 87% 30.07 in 10.0 mi SW 6.9 mph - N/A   Clear